Time,TemperatureF,DewpointF,PressureIn,WindDirection,WindDirectionDegrees,WindSpeedMPH,WindSpeedGustMPH,Humidity,HourlyPrecipIn,Conditions,Clouds,dailyrainin,SolarRadiationWatts/m^2,SoftwareType,DateUTC
2013-10-24 00:21:00,50.0,11.0,-100.00,NNE,26,1.0,3.0,20,-99.99,,,-99.99,0.000000,,2013-10-24 07:21:00,
2013-10-24 00:30:00,51.0,9.0,-100.00,ENE,60,3.0,5.0,18,-99.99,,,-99.99,0.000000,,2013-10-24 07:30:00,
2013-10-24 01:21:00,51.0,9.0,-100.00,ENE,60,3.0,5.0,18,-99.99,,,-99.99,0.000000,,2013-10-24 08:21:00,
2013-10-24 01:30:00,50.0,12.0,-100.00,NE,49,4.0,6.0,21,-99.99,,,-99.99,0.000000,,2013-10-24 08:30:00,
2013-10-24 02:22:00,50.0,12.0,-100.00,NE,49,4.0,6.0,21,-99.99,,,-99.99,0.000000,,2013-10-24 09:22:00,
2013-10-24 02:30:00,50.0,12.0,-100.00,NE,49,4.0,6.0,21,-99.99,,,-99.99,0.000000,,2013-10-24 09:30:00,
2013-10-24 03:23:00,50.0,12.0,-100.00,NE,49,4.0,6.0,21,-99.99,,,-99.99,0.000000,,2013-10-24 10:23:00,
2013-10-24 03:30:00,51.0,10.0,-100.00,ENE,58,2.0,3.0,19,-99.99,,,-99.99,0.000000,,2013-10-24 10:30:00,
2013-10-24 04:22:00,51.0,10.0,-100.00,ENE,58,2.0,3.0,19,-99.99,,,-99.99,0.000000,,2013-10-24 11:22:00,
2013-10-24 05:30:00,50.0,9.0,-100.00,NNE,18,1.0,2.0,19,-99.99,,,-99.99,0.000000,,2013-10-24 12:30:00,
2013-10-24 06:22:00,50.0,9.0,-100.00,NNE,18,1.0,2.0,19,-99.99,,,-99.99,0.000000,,2013-10-24 13:22:00,
2013-10-24 06:30:00,48.0,12.0,-100.00,NNW,330,1.0,2.0,23,-99.99,,,-99.99,0.000000,,2013-10-24 13:30:00,
2013-10-24 07:21:00,48.0,12.0,-100.00,NNW,330,1.0,2.0,23,-99.99,,,-99.99,0.000000,,2013-10-24 14:21:00,
2013-10-24 07:30:00,48.0,13.0,-100.00,NNW,335,2.0,3.0,24,-99.99,,,-99.99,5.000000,,2013-10-24 14:30:00,
2013-10-24 08:21:00,48.0,13.0,-100.00,NNW,335,2.0,3.0,24,-99.99,,,-99.99,5.000000,,2013-10-24 15:21:00,
2013-10-24 09:30:00,54.0,10.0,-100.00,NW,312,1.0,3.0,17,-99.99,,,-99.99,229.000000,,2013-10-24 16:30:00,
2013-10-24 10:22:00,54.0,10.0,-100.00,NW,312,1.0,3.0,17,-99.99,,,-99.99,229.000000,,2013-10-24 17:22:00,
2013-10-24 10:30:00,55.0,13.0,-100.00,WNW,285,1.0,3.0,19,-99.99,,,-99.99,27.000000,,2013-10-24 17:30:00,
2013-10-24 11:22:00,55.0,13.0,-100.00,WNW,285,1.0,3.0,19,-99.99,,,-99.99,27.000000,,2013-10-24 18:22:00,
2013-10-24 11:30:00,56.0,16.0,-100.00,South,191,2.0,6.0,20,-99.99,,,-99.99,450.000000,,2013-10-24 18:30:00,
2013-10-24 12:22:00,56.0,16.0,-100.00,South,191,2.0,6.0,20,-99.99,,,-99.99,450.000000,,2013-10-24 19:22:00,
2013-10-24 12:30:00,58.0,15.0,-100.00,SW,219,2.0,9.0,18,-99.99,,,-99.99,488.000000,,2013-10-24 19:30:00,
2013-10-24 13:23:00,58.0,15.0,-100.00,SW,219,2.0,9.0,18,-99.99,,,-99.99,488.000000,,2013-10-24 20:23:00,
2013-10-24 13:30:00,59.0,14.0,-100.00,WNW,284,2.0,6.0,17,-99.99,,,-99.99,475.000000,,2013-10-24 20:30:00,
2013-10-24 14:22:00,59.0,14.0,-100.00,WNW,284,2.0,6.0,17,-99.99,,,-99.99,475.000000,,2013-10-24 21:22:00,
2013-10-24 14:30:00,59.0,13.0,-100.00,WSW,247,3.0,9.0,16,-99.99,,,-99.99,414.000000,,2013-10-24 21:30:00,
2013-10-24 15:24:00,59.0,13.0,-100.00,WSW,247,3.0,9.0,16,-99.99,,,-99.99,414.000000,,2013-10-24 22:24:00,
2013-10-24 15:30:00,58.0,13.0,-100.00,West,277,2.0,6.0,17,-99.99,,,-99.99,50.000000,,2013-10-24 22:30:00,
2013-10-24 16:22:00,58.0,13.0,-100.00,West,277,2.0,6.0,17,-99.99,,,-99.99,50.000000,,2013-10-24 23:22:00,
2013-10-24 16:30:00,56.0,11.0,-100.00,WNW,285,2.0,5.0,17,-99.99,,,-99.99,178.000000,,2013-10-24 23:30:00,
2013-10-24 17:21:00,56.0,11.0,-100.00,WNW,285,2.0,5.0,17,-99.99,,,-99.99,178.000000,,2013-10-25 00:21:00,
2013-10-24 18:30:00,48.0,16.0,-100.00,NW,314,1.0,3.0,27,-99.99,,,-99.99,0.000000,,2013-10-25 01:30:00,
2013-10-24 19:22:00,48.0,16.0,-100.00,NW,314,1.0,3.0,27,-99.99,,,-99.99,0.000000,,2013-10-25 02:22:00,
2013-10-24 19:30:00,48.0,16.0,-100.00,NW,326,2.0,3.0,28,-99.99,,,-99.99,0.000000,,2013-10-25 02:30:00,
2013-10-24 20:23:00,48.0,16.0,-100.00,NW,326,2.0,3.0,28,-99.99,,,-99.99,0.000000,,2013-10-25 03:23:00,
2013-10-24 20:30:00,49.0,14.0,-100.00,North,4,2.0,3.0,24,-99.99,,,-99.99,0.000000,,2013-10-25 03:30:00,
2013-10-24 21:24:00,49.0,14.0,-100.00,North,4,2.0,3.0,24,-99.99,,,-99.99,0.000000,,2013-10-25 04:24:00,
2013-10-24 21:30:00,48.0,9.0,-100.00,ENE,65,0.0,1.0,20,-99.99,,,-99.99,0.000000,,2013-10-25 04:30:00,
2013-10-24 22:21:00,48.0,9.0,-100.00,ENE,65,0.0,1.0,20,-99.99,,,-99.99,0.000000,,2013-10-25 05:21:00,
2013-10-24 22:30:00,48.0,9.0,-100.00,NW,310,0.0,1.0,20,-99.99,,,-99.99,0.000000,,2013-10-25 05:30:00,
2013-10-24 23:21:00,48.0,9.0,-100.00,NW,310,0.0,1.0,20,-99.99,,,-99.99,0.000000,,2013-10-25 06:21:00,